Time,TemperatureF,DewpointF,PressureIn,WindDirection,WindDirectionDegrees,WindSpeedMPH,WindSpeedGustMPH,Humidity,HourlyPrecipIn,Conditions,Clouds,dailyrainin,SoftwareType,DateUTC
2013-01-20 00:00:00,39.9,23.7,29.65,SW,215,21.5,21.5,52,0.00,,---,0.00,VWS V14.01,2013-01-20 05:00:00,
2013-01-20 00:01:00,39.9,23.7,29.68,SW,215,21.5,21.5,52,0.00,,---,0.00,VWS V14.01,2013-01-20 05:01:00,
2013-01-20 00:03:00,39.3,23.2,29.68,SW,215,18.9,21.5,52,0.00,,---,0.00,VWS V14.01,2013-01-20 05:03:00,
2013-01-20 00:04:00,39.1,23.0,29.68,SW,215,18.9,18.9,52,0.00,,---,0.00,VWS V14.01,2013-01-20 05:04:00,
2013-01-20 00:09:00,38.8,20.3,29.68,West,260,19.2,49.3,47,0.00,,---,0.00,VWS V14.01,2013-01-20 05:09:00,
2013-01-20 00:14:00,38.4,19.5,29.68,West,260,39.4,39.4,46,0.00,,---,0.00,VWS V14.01,2013-01-20 05:14:00,
2013-01-20 00:19:00,38.2,19.3,29.68,WNW,282,15.9,39.4,46,0.00,,---,0.00,VWS V14.01,2013-01-20 05:19:00,
2013-01-20 00:24:00,37.7,18.8,29.68,WNW,282,35.4,35.4,46,0.00,,---,0.00,VWS V14.01,2013-01-20 05:24:00,
2013-01-20 00:29:00,37.7,17.8,29.68,West,260,34.8,44.0,44,0.00,,---,0.00,VWS V14.01,2013-01-20 05:29:00,
2013-01-20 00:34:00,37.3,17.4,29.68,West,260,34.8,34.8,44,0.00,,---,0.00,VWS V14.01,2013-01-20 05:34:00,
2013-01-20 00:39:00,37.0,17.1,29.68,West,260,22.5,34.8,44,0.00,,---,0.00,VWS V14.01,2013-01-20 05:39:00,
2013-01-20 00:45:00,36.4,16.1,29.68,North,350,25.8,42.7,43,0.00,,---,0.00,VWS V14.01,2013-01-20 05:45:00,
2013-01-20 00:50:00,36.1,16.3,29.68,WNW,282,9.3,9.3,44,0.00,,---,0.00,VWS V14.01,2013-01-20 05:50:00,
2013-01-20 00:55:00,35.5,16.3,29.68,South,170,8.6,8.6,45,0.00,,---,0.00,VWS V14.01,2013-01-20 05:55:00,
2013-01-20 01:00:00,35.2,16.0,29.68,West,260,30.1,30.1,45,0.00,,---,0.00,VWS V14.01,2013-01-20 06:00:00,
2013-01-20 01:05:00,34.8,16.2,29.68,West,260,35.8,35.8,46,0.00,,---,0.00,VWS V14.01,2013-01-20 06:05:00,
2013-01-20 01:10:00,34.3,15.7,29.71,West,260,35.8,35.8,46,0.00,,---,0.00,VWS V14.01,2013-01-20 06:10:00,
2013-01-20 01:15:00,33.9,14.8,29.71,West,260,35.8,35.8,45,0.00,,---,0.00,VWS V14.01,2013-01-20 06:15:00,
2013-01-20 01:20:00,33.4,14.8,29.74,West,260,35.8,35.8,46,0.00,,---,0.00,VWS V14.01,2013-01-20 06:20:00,
2013-01-20 01:25:00,32.8,15.8,29.74,NW,305,18.2,31.5,49,0.00,,---,0.00,VWS V14.01,2013-01-20 06:25:00,
2013-01-20 01:30:00,31.9,17.2,29.74,West,260,30.1,30.1,54,0.00,,---,0.00,VWS V14.01,2013-01-20 06:30:00,
2013-01-20 01:35:00,31.4,18.7,29.76,WNW,282,14.2,19.5,59,0.00,,---,0.00,VWS V14.01,2013-01-20 06:35:00,
2013-01-20 01:41:00,30.5,19.8,29.76,NW,305,14.6,14.6,64,0.00,,---,0.00,VWS V14.01,2013-01-20 06:41:00,
2013-01-20 01:46:00,30.0,21.0,29.76,NW,305,9.6,9.6,69,0.00,,---,0.00,VWS V14.01,2013-01-20 06:46:00,
2013-01-20 01:51:00,28.9,21.0,29.76,NW,305,9.3,9.3,72,0.00,,---,0.00,VWS V14.01,2013-01-20 06:51:00,
2013-01-20 01:56:00,28.3,20.1,29.76,NW,305,6.3,6.3,71,0.00,,---,0.00,VWS V14.01,2013-01-20 06:56:00,
2013-01-20 02:01:00,28.0,19.8,29.76,West,260,25.2,25.2,71,0.00,,---,0.00,VWS V14.01,2013-01-20 07:01:00,
2013-01-20 02:06:00,27.8,19.6,29.76,West,260,12.6,29.5,71,0.00,,---,0.00,VWS V14.01,2013-01-20 07:06:00,
2013-01-20 02:11:00,27.6,20.4,29.79,NW,305,21.9,21.9,74,0.00,,---,0.00,VWS V14.01,2013-01-20 07:11:00,
2013-01-20 02:16:00,27.4,20.3,29.82,West,260,20.9,20.9,74,0.00,,---,0.00,VWS V14.01,2013-01-20 07:16:00,
2013-01-20 02:21:00,27.3,20.1,29.82,WNW,282,23.2,23.2,74,0.00,,---,0.00,VWS V14.01,2013-01-20 07:21:00,
2013-01-20 02:26:00,27.1,20.2,29.82,WNW,282,16.2,16.2,75,0.00,,---,0.00,VWS V14.01,2013-01-20 07:26:00,
2013-01-20 02:31:00,26.7,19.9,29.82,NW,305,6.3,15.2,75,0.00,,---,0.00,VWS V14.01,2013-01-20 07:31:00,
2013-01-20 02:36:00,26.7,19.9,29.82,West,260,20.9,20.9,75,0.00,,---,0.00,VWS V14.01,2013-01-20 07:36:00,
2013-01-20 02:41:00,26.7,19.9,29.82,ESE,102,15.6,18.5,75,0.00,,---,0.00,VWS V14.01,2013-01-20 07:41:00,
2013-01-20 02:46:00,26.7,19.9,29.85,NW,305,4.3,17.6,75,0.00,,---,0.00,VWS V14.01,2013-01-20 07:46:00,
2013-01-20 02:51:00,26.7,19.9,29.85,NW,305,16.9,16.9,75,0.00,,---,0.00,VWS V14.01,2013-01-20 07:51:00,
2013-01-20 02:56:00,25.8,19.9,29.85,NW,305,16.2,16.2,78,0.00,,---,0.00,VWS V14.01,2013-01-20 07:56:00,
2013-01-20 03:02:00,25.3,19.4,29.85,NW,305,9.6,9.6,78,0.00,,---,0.00,VWS V14.01,2013-01-20 08:02:00,
2013-01-20 03:07:00,24.4,17.9,29.85,North,350,11.3,11.3,76,0.00,,---,0.00,VWS V14.01,2013-01-20 08:07:00,
2013-01-20 03:12:00,24.2,18.0,29.85,North,350,5.0,5.0,77,0.00,,---,0.00,VWS V14.01,2013-01-20 08:12:00,
2013-01-20 03:17:00,23.7,17.5,29.88,NW,305,6.3,6.3,77,0.00,,---,0.00,VWS V14.01,2013-01-20 08:17:00,
2013-01-20 03:22:00,23.7,17.5,29.88,NW,305,24.5,24.5,77,0.00,,---,0.00,VWS V14.01,2013-01-20 08:22:00,
2013-01-20 03:27:00,22.9,17.1,29.88,SW,215,7.3,7.3,78,0.00,,---,0.00,VWS V14.01,2013-01-20 08:27:00,
2013-01-20 03:32:00,22.2,16.7,29.88,NW,305,19.5,19.5,79,0.00,,---,0.00,VWS V14.01,2013-01-20 08:32:00,
2013-01-20 03:37:00,22.0,16.5,29.88,West,260,22.9,22.9,79,0.00,,---,0.00,VWS V14.01,2013-01-20 08:37:00,
2013-01-20 03:42:00,21.7,15.6,29.88,SW,215,12.6,12.6,77,0.00,,---,0.00,VWS V14.01,2013-01-20 08:42:00,
2013-01-20 03:47:00,21.3,14.9,29.91,WNW,282,12.6,28.8,76,0.00,,---,0.00,VWS V14.01,2013-01-20 08:47:00,
2013-01-20 03:52:00,20.8,14.7,29.91,NW,305,5.6,11.9,77,0.00,,---,0.00,VWS V14.01,2013-01-20 08:52:00,
2013-01-20 03:57:00,20.6,14.8,29.91,NW,305,8.3,8.6,78,0.00,,---,0.00,VWS V14.01,2013-01-20 08:57:00,
2013-01-20 04:02:00,20.2,14.8,29.91,West,260,17.9,17.9,79,0.00,,---,0.00,VWS V14.01,2013-01-20 09:02:00,
2013-01-20 04:07:00,20.1,14.6,29.91,NW,305,10.9,14.6,79,0.00,,---,0.00,VWS V14.01,2013-01-20 09:07:00,
2013-01-20 04:12:00,19.7,14.3,29.91,West,260,8.3,8.3,79,0.00,,---,0.00,VWS V14.01,2013-01-20 09:12:00,
2013-01-20 04:17:00,19.5,13.5,29.91,NW,305,5.3,18.5,77,0.00,,---,0.00,VWS V14.01,2013-01-20 09:17:00,
2013-01-20 04:23:00,19.5,13.5,29.91,NW,305,7.0,7.0,77,0.00,,---,0.00,VWS V14.01,2013-01-20 09:23:00,
2013-01-20 04:28:00,19.2,12.9,29.91,NW,305,21.9,21.9,76,0.00,,---,0.00,VWS V14.01,2013-01-20 09:28:00,
2013-01-20 04:33:00,19.0,13.0,29.94,WNW,282,5.0,15.6,77,0.00,,---,0.00,VWS V14.01,2013-01-20 09:33:00,
2013-01-20 04:38:00,18.6,12.9,29.94,NW,305,25.8,25.8,78,0.00,,---,0.00,VWS V14.01,2013-01-20 09:38:00,
2013-01-20 04:43:00,18.6,12.6,29.94,NNW,328,18.5,18.5,77,0.00,,---,0.00,VWS V14.01,2013-01-20 09:43:00,
2013-01-20 04:48:00,18.4,12.4,29.94,NW,305,11.3,11.3,77,0.00,,---,0.00,VWS V14.01,2013-01-20 09:48:00,
2013-01-20 04:53:00,18.1,11.8,29.94,NW,305,5.6,13.9,76,0.00,,---,0.00,VWS V14.01,2013-01-20 09:53:00,
2013-01-20 04:58:00,18.1,11.8,29.94,NW,305,14.6,21.5,76,0.00,,---,0.00,VWS V14.01,2013-01-20 09:58:00,
2013-01-20 05:03:00,18.1,11.8,29.94,NW,305,12.6,12.6,76,0.00,,---,0.00,VWS V14.01,2013-01-20 10:03:00,
2013-01-20 05:09:00,17.9,11.6,29.94,WSW,238,11.3,11.3,76,0.00,,---,0.00,VWS V14.01,2013-01-20 10:09:00,
2013-01-20 05:14:00,17.9,11.3,29.94,WSW,238,11.6,11.6,75,0.00,,---,0.00,VWS V14.01,2013-01-20 10:14:00,
2013-01-20 05:19:00,17.7,10.6,29.97,NW,305,16.2,16.9,73,0.00,,---,0.00,VWS V14.01,2013-01-20 10:19:00,
2013-01-20 05:24:00,17.5,10.4,29.97,West,260,10.6,22.9,73,0.00,,---,0.00,VWS V14.01,2013-01-20 10:24:00,
2013-01-20 05:29:00,17.4,10.2,29.97,West,260,18.9,18.9,73,0.00,,---,0.00,VWS V14.01,2013-01-20 10:29:00,
2013-01-20 05:34:00,17.2,9.7,29.97,North,350,8.6,17.9,72,0.00,,---,0.00,VWS V14.01,2013-01-20 10:34:00,
2013-01-20 05:39:00,17.2,10.0,29.97,SE,125,10.6,12.9,73,0.00,,---,0.00,VWS V14.01,2013-01-20 10:39:00,
2013-01-20 05:44:00,17.0,9.9,29.97,NW,305,11.3,11.3,73,0.00,,---,0.00,VWS V14.01,2013-01-20 10:44:00,
2013-01-20 05:49:00,17.0,9.9,29.97,West,260,11.3,28.5,73,0.00,,---,0.00,VWS V14.01,2013-01-20 10:49:00,
2013-01-20 05:54:00,16.8,10.0,29.97,NW,305,9.3,9.3,74,0.00,,---,0.00,VWS V14.01,2013-01-20 10:54:00,
2013-01-20 05:59:00,16.5,9.9,29.97,SW,215,12.9,21.5,75,0.00,,---,0.00,VWS V14.01,2013-01-20 10:59:00,
2013-01-20 06:04:00,16.3,10.1,30.00,WNW,282,13.9,13.9,76,0.00,,---,0.00,VWS V14.01,2013-01-20 11:04:00,
2013-01-20 06:09:00,16.3,10.4,30.00,WNW,282,9.3,11.3,77,0.00,,---,0.00,VWS V14.01,2013-01-20 11:09:00,
2013-01-20 06:14:00,16.3,10.6,30.00,North,350,11.3,14.9,78,0.00,,---,0.00,VWS V14.01,2013-01-20 11:14:00,
2013-01-20 06:20:00,16.1,10.5,30.00,West,260,22.5,22.5,78,0.00,,---,0.00,VWS V14.01,2013-01-20 11:20:00,
2013-01-20 06:25:00,15.9,9.7,30.00,West,260,18.2,18.2,76,0.00,,---,0.00,VWS V14.01,2013-01-20 11:25:00,
2013-01-20 06:30:00,15.7,9.5,30.00,NW,305,18.5,18.5,76,0.00,,---,0.00,VWS V14.01,2013-01-20 11:30:00,
2013-01-20 06:35:00,15.6,9.4,30.00,WNW,282,3.0,6.3,76,0.00,,---,0.00,VWS V14.01,2013-01-20 11:35:00,
2013-01-20 06:40:00,15.7,9.5,30.00,West,260,11.9,17.6,76,0.00,,---,0.00,VWS V14.01,2013-01-20 11:40:00,
2013-01-20 06:45:00,15.6,9.4,30.00,North,350,5.0,8.3,76,0.00,,---,0.00,VWS V14.01,2013-01-20 11:45:00,
2013-01-20 06:50:00,15.6,9.6,30.03,WNW,282,8.3,8.3,77,0.00,,---,0.00,VWS V14.01,2013-01-20 11:50:00,
2013-01-20 06:55:00,15.6,9.6,30.03,WNW,282,7.3,12.6,77,0.00,,---,0.00,VWS V14.01,2013-01-20 11:55:00,
2013-01-20 07:00:00,15.6,9.4,30.03,NW,305,10.6,10.6,76,0.00,,---,0.00,VWS V14.01,2013-01-20 12:00:00,
2013-01-20 07:05:00,15.6,9.4,30.03,North,350,5.3,6.3,76,0.00,,---,0.00,VWS V14.01,2013-01-20 12:05:00,
2013-01-20 07:10:00,15.6,9.4,30.03,NW,305,2.0,2.0,76,0.00,,---,0.00,VWS V14.01,2013-01-20 12:10:00,
2013-01-20 07:15:00,15.4,9.2,30.03,West,260,6.0,9.6,76,0.00,,---,0.00,VWS V14.01,2013-01-20 12:15:00,
2013-01-20 07:21:00,15.4,9.2,30.06,NW,305,4.0,9.6,76,0.00,,---,0.00,VWS V14.01,2013-01-20 12:21:00,
2013-01-20 07:26:00,15.4,9.2,30.06,WNW,282,7.3,7.3,76,0.00,,---,0.00,VWS V14.01,2013-01-20 12:26:00,
2013-01-20 07:32:00,15.4,9.2,30.06,NW,305,5.0,11.3,76,0.00,,---,0.00,VWS V14.01,2013-01-20 12:32:00,
2013-01-20 07:37:00,15.4,9.2,30.06,NW,305,5.0,11.6,76,0.00,,---,0.00,VWS V14.01,2013-01-20 12:37:00,
2013-01-20 07:42:00,15.4,9.5,30.06,NW,305,5.6,5.6,77,0.00,,---,0.00,VWS V14.01,2013-01-20 12:42:00,
2013-01-20 07:47:00,15.4,9.5,30.06,West,260,9.3,9.3,77,0.00,,---,0.00,VWS V14.01,2013-01-20 12:47:00,
2013-01-20 07:52:00,15.2,9.3,30.06,SW,215,8.6,8.6,77,0.00,,---,0.00,VWS V14.01,2013-01-20 12:52:00,
2013-01-20 07:57:00,15.2,9.3,30.06,West,260,5.0,5.6,77,0.00,,---,0.00,VWS V14.01,2013-01-20 12:57:00,
2013-01-20 08:02:00,15.2,9.3,30.06,West,260,17.9,17.9,77,0.00,,---,0.00,VWS V14.01,2013-01-20 13:02:00,
2013-01-20 08:07:00,15.4,9.5,30.06,West,260,6.0,10.3,77,0.00,,---,0.00,VWS V14.01,2013-01-20 13:07:00,
2013-01-20 08:12:00,15.2,9.6,30.06,North,350,5.3,5.3,78,0.00,,---,0.00,VWS V14.01,2013-01-20 13:12:00,
2013-01-20 08:18:00,15.4,9.8,30.09,West,260,8.3,12.6,78,0.00,,---,0.00,VWS V14.01,2013-01-20 13:18:00,
2013-01-20 08:23:00,15.4,9.8,30.09,West,260,6.0,6.3,78,0.00,,---,0.00,VWS V14.01,2013-01-20 13:23:00,
2013-01-20 08:28:00,15.4,9.8,30.09,NW,305,13.9,13.9,78,0.00,,---,0.00,VWS V14.01,2013-01-20 13:28:00,
2013-01-20 08:33:00,15.6,9.9,30.09,SW,215,3.0,12.6,78,0.00,,---,0.00,VWS V14.01,2013-01-20 13:33:00,
2013-01-20 08:38:00,15.6,9.9,30.09,WSW,238,12.6,12.6,78,0.00,,---,0.00,VWS V14.01,2013-01-20 13:38:00,
2013-01-20 08:43:00,15.6,9.9,30.09,West,260,8.3,8.3,78,0.00,,---,0.00,VWS V14.01,2013-01-20 13:43:00,
2013-01-20 08:48:00,15.7,10.1,30.09,West,260,3.0,3.0,78,0.00,,---,0.00,VWS V14.01,2013-01-20 13:48:00,
2013-01-20 08:53:00,15.7,10.1,30.09,West,260,4.6,7.0,78,0.00,,---,0.00,VWS V14.01,2013-01-20 13:53:00,
2013-01-20 08:59:00,15.9,10.3,30.09,South,170,11.9,11.9,78,0.00,,---,0.00,VWS V14.01,2013-01-20 13:59:00,
2013-01-20 09:04:00,16.1,10.5,30.09,West,260,2.3,11.9,78,0.00,,---,0.00,VWS V14.01,2013-01-20 14:04:00,
2013-01-20 09:09:00,16.1,10.5,30.09,West,260,2.3,2.3,78,0.00,,---,0.00,VWS V14.01,2013-01-20 14:09:00,
2013-01-20 09:14:00,16.1,10.2,30.09,NW,305,5.3,5.3,77,0.00,,---,0.00,VWS V14.01,2013-01-20 14:14:00,
2013-01-20 09:19:00,16.3,10.6,30.12,NW,305,5.0,5.0,78,0.00,,---,0.00,VWS V14.01,2013-01-20 14:19:00,
2013-01-20 09:24:00,16.5,10.8,30.12,West,260,11.6,11.6,78,0.00,,---,0.00,VWS V14.01,2013-01-20 14:24:00,
2013-01-20 09:29:00,16.5,10.8,30.12,West,260,11.6,11.6,78,0.00,,---,0.00,VWS V14.01,2013-01-20 14:29:00,
2013-01-20 09:34:00,16.5,10.8,30.12,West,260,11.6,11.6,78,0.00,,---,0.00,VWS V14.01,2013-01-20 14:34:00,
2013-01-20 09:39:00,16.6,11.3,30.12,East,80,0.0,0.0,79,0.00,,---,0.00,VWS V14.01,2013-01-20 14:39:00,
2013-01-20 09:45:00,16.8,11.4,30.12,East,80,0.0,0.0,79,0.00,,---,0.00,VWS V14.01,2013-01-20 14:45:00,
2013-01-20 09:50:00,16.8,11.2,30.12,East,80,0.0,0.0,78,0.00,,---,0.00,VWS V14.01,2013-01-20 14:50:00,
2013-01-20 09:55:00,16.8,11.4,30.12,East,80,0.0,0.0,79,0.00,,---,0.00,VWS V14.01,2013-01-20 14:55:00,
2013-01-20 10:00:00,17.0,11.6,30.12,East,80,0.0,0.0,79,0.00,,---,0.00,VWS V14.01,2013-01-20 15:00:00,
2013-01-20 10:05:00,17.2,11.8,30.15,East,80,0.0,0.0,79,0.00,,---,0.00,VWS V14.01,2013-01-20 15:05:00,
2013-01-20 10:10:00,17.2,11.5,30.15,East,80,0.0,0.0,78,0.00,,---,0.00,VWS V14.01,2013-01-20 15:10:00,
2013-01-20 10:15:00,17.2,11.5,30.15,East,80,0.0,0.0,78,0.00,,---,0.00,VWS V14.01,2013-01-20 15:15:00,
2013-01-20 10:20:00,17.5,12.1,30.15,West,260,4.3,4.3,79,0.00,,---,0.00,VWS V14.01,2013-01-20 15:20:00,
2013-01-20 10:25:00,17.7,12.0,30.15,West,260,8.9,8.9,78,0.00,,---,0.00,VWS V14.01,2013-01-20 15:25:00,
2013-01-20 10:30:00,17.4,11.4,30.15,West,260,20.5,20.5,77,0.00,,---,0.00,VWS V14.01,2013-01-20 15:30:00,
2013-01-20 10:35:00,17.2,11.2,30.15,WNW,282,7.9,7.9,77,0.00,,---,0.00,VWS V14.01,2013-01-20 15:35:00,
2013-01-20 10:40:00,17.2,11.2,30.15,North,350,6.0,6.0,77,0.00,,---,0.00,VWS V14.01,2013-01-20 15:40:00,
2013-01-20 10:45:00,17.4,11.4,30.15,NW,305,18.2,18.2,77,0.00,,---,0.00,VWS V14.01,2013-01-20 15:45:00,
2013-01-20 10:50:00,17.4,11.4,30.15,WNW,282,15.2,15.2,77,0.00,,---,0.00,VWS V14.01,2013-01-20 15:50:00,
2013-01-20 10:55:00,17.5,11.6,30.15,NW,305,13.6,13.6,77,0.00,,---,0.00,VWS V14.01,2013-01-20 15:55:00,
2013-01-20 11:01:00,17.4,11.1,30.15,WNW,282,7.9,7.9,76,0.00,,---,0.00,VWS V14.01,2013-01-20 16:01:00,
2013-01-20 11:06:00,17.5,11.6,30.15,West,260,4.0,4.0,77,0.00,,---,0.00,VWS V14.01,2013-01-20 16:06:00,
2013-01-20 11:11:00,17.5,11.9,30.15,NW,305,0.0,6.0,78,0.00,,---,0.00,VWS V14.01,2013-01-20 16:11:00,
2013-01-20 11:16:00,17.7,12.0,30.15,NW,305,3.3,3.3,78,0.00,,---,0.00,VWS V14.01,2013-01-20 16:16:00,
2013-01-20 11:21:00,17.9,12.2,30.18,West,260,13.2,13.2,78,0.00,,---,0.00,VWS V14.01,2013-01-20 16:21:00,
2013-01-20 11:26:00,17.9,12.2,30.18,West,260,11.6,11.6,78,0.00,,---,0.00,VWS V14.01,2013-01-20 16:26:00,
2013-01-20 11:31:00,17.9,12.2,30.18,NW,305,3.0,14.2,78,0.00,,---,0.00,VWS V14.01,2013-01-20 16:31:00,
2013-01-20 11:36:00,17.9,12.5,30.15,NW,305,6.0,6.0,79,0.00,,---,0.00,VWS V14.01,2013-01-20 16:36:00,
2013-01-20 11:41:00,17.9,12.5,30.15,WNW,282,7.3,7.3,79,0.00,,---,0.00,VWS V14.01,2013-01-20 16:41:00,
2013-01-20 11:46:00,17.5,12.1,30.18,WNW,282,8.3,8.3,79,0.00,,---,0.00,VWS V14.01,2013-01-20 16:46:00,
2013-01-20 11:51:00,17.7,12.3,30.18,North,350,3.6,5.3,79,0.00,,---,0.00,VWS V14.01,2013-01-20 16:51:00,
2013-01-20 11:56:00,18.1,12.7,30.18,SW,215,1.3,1.3,79,0.00,,---,0.00,VWS V14.01,2013-01-20 16:56:00,
2013-01-20 12:01:00,18.1,12.7,30.15,West,260,11.9,11.9,79,0.00,,---,0.00,VWS V14.01,2013-01-20 17:01:00,
2013-01-20 12:06:00,17.9,12.2,30.15,West,260,7.0,7.0,78,0.00,,---,0.00,VWS V14.01,2013-01-20 17:06:00,
2013-01-20 12:11:00,17.9,12.2,30.15,West,260,7.0,7.0,78,0.00,,---,0.00,VWS V14.01,2013-01-20 17:11:00,
2013-01-20 12:16:00,17.9,12.2,30.15,West,260,9.6,9.6,78,0.00,,---,0.00,VWS V14.01,2013-01-20 17:16:00,
2013-01-20 12:21:00,18.4,13.0,30.15,West,260,9.6,9.6,79,0.00,,---,0.00,VWS V14.01,2013-01-20 17:21:00,
2013-01-20 12:27:00,18.4,13.0,30.15,SW,215,14.6,14.6,79,0.00,,---,0.00,VWS V14.01,2013-01-20 17:27:00,
2013-01-20 12:32:00,18.4,13.0,30.12,West,260,18.9,18.9,79,0.00,,---,0.00,VWS V14.01,2013-01-20 17:32:00,
2013-01-20 12:37:00,18.4,12.7,30.12,NW,305,4.6,4.6,78,0.00,,---,0.00,VWS V14.01,2013-01-20 17:37:00,
2013-01-20 12:42:00,18.4,12.7,30.12,SW,215,5.0,5.0,78,0.00,,---,0.00,VWS V14.01,2013-01-20 17:42:00,
2013-01-20 12:47:00,18.4,12.7,30.12,NW,305,8.3,8.3,78,0.00,,---,0.00,VWS V14.01,2013-01-20 17:47:00,
2013-01-20 12:52:00,18.3,12.0,30.12,West,260,9.3,9.3,76,0.00,,---,0.00,VWS V14.01,2013-01-20 17:52:00,
2013-01-20 12:57:00,18.4,12.1,30.12,West,260,7.9,7.9,76,0.00,,---,0.00,VWS V14.01,2013-01-20 17:57:00,
2013-01-20 13:02:00,18.1,11.8,30.12,WNW,282,6.0,6.0,76,0.00,,---,0.00,VWS V14.01,2013-01-20 18:02:00,
2013-01-20 13:07:00,18.1,11.5,30.12,West,260,11.6,11.6,75,0.00,,---,0.00,VWS V14.01,2013-01-20 18:07:00,
2013-01-20 13:12:00,18.1,11.8,30.12,North,350,3.0,8.3,76,0.00,,---,0.00,VWS V14.01,2013-01-20 18:12:00,
2013-01-20 13:17:00,18.4,12.1,30.12,NW,305,3.6,8.9,76,0.00,,---,0.00,VWS V14.01,2013-01-20 18:17:00,
2013-01-20 13:22:00,18.4,12.1,30.12,NW,305,1.3,8.3,76,0.00,,---,0.00,VWS V14.01,2013-01-20 18:22:00,
2013-01-20 13:27:00,18.6,12.3,30.12,NW,305,11.6,11.9,76,0.00,,---,0.00,VWS V14.01,2013-01-20 18:27:00,
2013-01-20 13:32:00,18.6,12.3,30.12,NW,305,7.3,8.3,76,0.00,,---,0.00,VWS V14.01,2013-01-20 18:32:00,
2013-01-20 13:37:00,18.4,12.1,30.12,West,260,7.3,8.6,76,0.00,,---,0.00,VWS V14.01,2013-01-20 18:37:00,
2013-01-20 13:42:00,18.3,12.3,30.12,West,260,4.6,4.6,77,0.00,,---,0.00,VWS V14.01,2013-01-20 18:42:00,
2013-01-20 13:47:00,18.4,12.4,30.12,NW,305,16.2,16.2,77,0.00,,---,0.00,VWS V14.01,2013-01-20 18:47:00,
2013-01-20 13:52:00,18.3,12.3,30.12,West,260,6.3,9.6,77,0.00,,---,0.00,VWS V14.01,2013-01-20 18:52:00,
2013-01-20 13:57:00,18.3,12.3,30.12,West,260,8.6,14.2,77,0.00,,---,0.00,VWS V14.01,2013-01-20 18:57:00,
2013-01-20 14:03:00,18.4,12.4,30.12,NW,305,11.6,11.6,77,0.00,,---,0.00,VWS V14.01,2013-01-20 19:03:00,
2013-01-20 14:08:00,18.3,12.3,30.12,West,260,11.6,11.6,77,0.00,,---,0.00,VWS V14.01,2013-01-20 19:08:00,
2013-01-20 14:13:00,17.9,11.6,30.12,WNW,282,6.0,12.6,76,0.00,,---,0.00,VWS V14.01,2013-01-20 19:13:00,
2013-01-20 14:18:00,18.4,12.4,30.12,West,260,10.9,10.9,77,0.00,,---,0.00,VWS V14.01,2013-01-20 19:18:00,
2013-01-20 14:23:00,18.4,12.4,30.12,NW,305,16.2,16.2,77,0.00,,---,0.00,VWS V14.01,2013-01-20 19:23:00,
2013-01-20 14:28:00,18.1,12.1,30.12,West,260,4.0,4.0,77,0.00,,---,0.00,VWS V14.01,2013-01-20 19:28:00,
2013-01-20 14:33:00,17.9,11.9,30.12,NW,305,5.0,6.0,77,0.00,,---,0.00,VWS V14.01,2013-01-20 19:33:00,
2013-01-20 14:38:00,18.1,12.1,30.12,WNW,282,6.6,11.9,77,0.00,,---,0.00,VWS V14.01,2013-01-20 19:38:00,
2013-01-20 14:43:00,18.1,11.8,30.12,West,260,6.0,6.0,76,0.00,,---,0.00,VWS V14.01,2013-01-20 19:43:00,
2013-01-20 14:48:00,17.9,11.3,30.15,NW,305,4.6,4.6,75,0.00,,---,0.00,VWS V14.01,2013-01-20 19:48:00,
2013-01-20 14:53:00,18.1,11.8,30.15,NW,305,12.9,12.9,76,0.00,,---,0.00,VWS V14.01,2013-01-20 19:53:00,
2013-01-20 14:58:00,17.9,11.3,30.15,South,170,5.3,9.3,75,0.00,,---,0.00,VWS V14.01,2013-01-20 19:58:00,
2013-01-20 15:03:00,17.9,11.3,30.15,SW,215,6.6,8.6,75,0.00,,---,0.00,VWS V14.01,2013-01-20 20:03:00,
2013-01-20 15:08:00,18.1,11.8,30.15,WNW,282,4.6,4.6,76,0.00,,---,0.00,VWS V14.01,2013-01-20 20:08:00,
2013-01-20 15:13:00,17.9,11.9,30.15,NW,305,5.3,6.3,77,0.00,,---,0.00,VWS V14.01,2013-01-20 20:13:00,
2013-01-20 15:18:00,18.1,12.1,30.15,NNE,12,6.3,6.3,77,0.00,,---,0.00,VWS V14.01,2013-01-20 20:18:00,
2013-01-20 15:23:00,18.1,12.1,30.15,WNW,282,8.3,8.3,77,0.00,,---,0.00,VWS V14.01,2013-01-20 20:23:00,
2013-01-20 15:28:00,18.1,12.1,30.15,West,260,8.6,8.6,77,0.00,,---,0.00,VWS V14.01,2013-01-20 20:28:00,
2013-01-20 15:33:00,17.7,11.8,30.15,West,260,8.6,8.6,77,0.00,,---,0.00,VWS V14.01,2013-01-20 20:33:00,
2013-01-20 15:38:00,17.7,11.8,30.15,North,350,3.3,4.6,77,0.00,,---,0.00,VWS V14.01,2013-01-20 20:38:00,
2013-01-20 15:44:00,17.5,11.3,30.15,West,260,5.6,11.6,76,0.00,,---,0.00,VWS V14.01,2013-01-20 20:44:00,
2013-01-20 15:49:00,17.7,11.4,30.12,NW,305,5.3,7.9,76,0.00,,---,0.00,VWS V14.01,2013-01-20 20:49:00,
2013-01-20 15:54:00,17.7,11.4,30.12,SW,215,7.3,8.6,76,0.00,,---,0.00,VWS V14.01,2013-01-20 20:54:00,
2013-01-20 15:59:00,17.5,11.3,30.12,WNW,282,8.3,12.9,76,0.00,,---,0.00,VWS V14.01,2013-01-20 20:59:00,
2013-01-20 16:04:00,17.5,11.3,30.15,East,80,8.3,8.3,76,0.00,,---,0.00,VWS V14.01,2013-01-20 21:04:00,
2013-01-20 16:09:00,17.7,11.8,30.15,WSW,238,7.9,7.9,77,0.00,,---,0.00,VWS V14.01,2013-01-20 21:09:00,
2013-01-20 16:14:00,17.7,11.8,30.15,WNW,282,6.3,6.3,77,0.00,,---,0.00,VWS V14.01,2013-01-20 21:14:00,
2013-01-20 16:19:00,17.5,11.6,30.15,West,260,4.3,5.6,77,0.00,,---,0.00,VWS V14.01,2013-01-20 21:19:00,
2013-01-20 16:25:00,17.5,11.6,30.15,NW,305,9.3,9.3,77,0.00,,---,0.00,VWS V14.01,2013-01-20 21:25:00,
2013-01-20 16:30:00,17.5,11.6,30.15,NW,305,5.6,5.6,77,0.00,,---,0.00,VWS V14.01,2013-01-20 21:30:00,
2013-01-20 16:35:00,17.5,11.9,30.15,NW,305,6.3,7.0,78,0.00,,---,0.00,VWS V14.01,2013-01-20 21:35:00,
2013-01-20 16:40:00,17.5,11.9,30.15,West,260,8.9,8.9,78,0.00,,---,0.00,VWS V14.01,2013-01-20 21:40:00,
2013-01-20 16:45:00,17.2,11.2,30.15,West,260,14.9,14.9,77,0.00,,---,0.00,VWS V14.01,2013-01-20 21:45:00,
2013-01-20 16:50:00,17.2,10.9,30.15,West,260,3.6,7.9,76,0.00,,---,0.00,VWS V14.01,2013-01-20 21:50:00,
2013-01-20 16:55:00,17.2,10.9,30.15,WNW,282,8.3,8.3,76,0.00,,---,0.00,VWS V14.01,2013-01-20 21:55:00,
2013-01-20 17:01:00,17.0,10.8,30.15,West,260,9.3,9.3,76,0.00,,---,0.00,VWS V14.01,2013-01-20 22:01:00,
2013-01-20 17:06:00,17.0,10.8,30.15,West,260,8.6,14.2,76,0.00,,---,0.00,VWS V14.01,2013-01-20 22:06:00,
2013-01-20 17:11:00,17.0,10.8,30.15,West,260,6.3,7.9,76,0.00,,---,0.00,VWS V14.01,2013-01-20 22:11:00,
2013-01-20 17:16:00,17.0,10.8,30.15,West,260,11.3,11.3,76,0.00,,---,0.00,VWS V14.01,2013-01-20 22:16:00,
2013-01-20 17:21:00,17.0,11.1,30.15,West,260,12.6,12.6,77,0.00,,---,0.00,VWS V14.01,2013-01-20 22:21:00,
2013-01-20 17:26:00,16.8,10.9,30.15,NW,305,0.0,4.6,77,0.00,,---,0.00,VWS V14.01,2013-01-20 22:26:00,
2013-01-20 17:31:00,17.0,11.1,30.15,WNW,282,4.6,9.3,77,0.00,,---,0.00,VWS V14.01,2013-01-20 22:31:00,
2013-01-20 17:37:00,17.0,11.3,30.15,West,260,5.0,5.0,78,0.00,,---,0.00,VWS V14.01,2013-01-20 22:37:00,
2013-01-20 17:42:00,16.8,11.2,30.15,NW,305,0.0,5.6,78,0.00,,---,0.00,VWS V14.01,2013-01-20 22:42:00,
2013-01-20 17:47:00,16.8,11.2,30.15,WNW,282,7.3,7.3,78,0.00,,---,0.00,VWS V14.01,2013-01-20 22:47:00,
2013-01-20 17:52:00,16.8,11.2,30.15,West,260,3.6,3.6,78,0.00,,---,0.00,VWS V14.01,2013-01-20 22:52:00,
2013-01-20 17:57:00,16.6,11.0,30.15,West,260,5.6,9.6,78,0.00,,---,0.00,VWS V14.01,2013-01-20 22:57:00,
2013-01-20 18:03:00,16.6,11.0,30.15,North,350,0.0,6.0,78,0.00,,---,0.00,VWS V14.01,2013-01-20 23:03:00,
2013-01-20 18:08:00,16.5,10.8,30.15,North,350,0.0,0.0,78,0.00,,---,0.00,VWS V14.01,2013-01-20 23:08:00,
2013-01-20 18:13:00,16.5,11.1,30.15,WNW,282,5.6,5.6,79,0.00,,---,0.00,VWS V14.01,2013-01-20 23:13:00,
2013-01-20 18:18:00,16.5,11.1,30.15,West,260,4.6,4.6,79,0.00,,---,0.00,VWS V14.01,2013-01-20 23:18:00,
2013-01-20 18:23:00,16.5,11.1,30.15,West,260,5.6,5.6,79,0.00,,---,0.00,VWS V14.01,2013-01-20 23:23:00,
2013-01-20 18:28:00,16.5,11.1,30.15,WNW,282,5.6,5.6,79,0.00,,---,0.00,VWS V14.01,2013-01-20 23:28:00,
2013-01-20 18:33:00,16.5,11.1,30.15,SW,215,4.0,5.6,79,0.00,,---,0.00,VWS V14.01,2013-01-20 23:33:00,
2013-01-20 18:39:00,16.5,11.1,30.15,WNW,282,4.6,4.6,79,0.00,,---,0.00,VWS V14.01,2013-01-20 23:39:00,
2013-01-20 18:44:00,16.5,11.1,30.15,WNW,282,4.6,4.6,79,0.00,,---,0.00,VWS V14.01,2013-01-20 23:44:00,
2013-01-20 18:49:00,16.5,11.1,30.15,WNW,282,4.6,4.6,79,0.00,,---,0.00,VWS V14.01,2013-01-20 23:49:00,
2013-01-20 18:54:00,16.5,11.1,30.15,WNW,282,4.6,4.6,79,0.00,,---,0.00,VWS V14.01,2013-01-20 23:54:00,
2013-01-20 18:59:00,16.5,11.1,30.15,WNW,282,0.0,4.6,79,0.00,,---,0.00,VWS V14.01,2013-01-20 23:59:00,
2013-01-20 19:04:00,16.5,11.1,30.15,NW,305,4.0,4.0,79,0.00,,---,0.00,VWS V14.01,2013-01-21 00:04:00,
2013-01-20 19:09:00,16.5,11.1,30.15,NW,305,1.7,1.7,79,0.00,,---,0.00,VWS V14.01,2013-01-21 00:09:00,
2013-01-20 19:15:00,16.5,11.1,30.15,West,260,3.0,3.3,79,0.00,,---,0.00,VWS V14.01,2013-01-21 00:15:00,
2013-01-20 19:20:00,16.5,11.1,30.15,North,350,3.0,3.0,79,0.00,,---,0.00,VWS V14.01,2013-01-21 00:20:00,
2013-01-20 19:25:00,16.3,10.9,30.15,NNW,328,0.0,0.0,79,0.00,,---,0.00,VWS V14.01,2013-01-21 00:25:00,
2013-01-20 19:30:00,16.3,10.9,30.15,West,260,2.3,4.6,79,0.00,,---,0.00,VWS V14.01,2013-01-21 00:30:00,
2013-01-20 19:35:00,16.3,10.9,30.15,West,260,2.3,2.3,79,0.00,,---,0.00,VWS V14.01,2013-01-21 00:35:00,
2013-01-20 19:41:00,16.3,10.9,30.15,West,260,1.3,1.3,79,0.00,,---,0.00,VWS V14.01,2013-01-21 00:41:00,
2013-01-20 19:46:00,16.3,10.9,30.15,West,260,1.3,1.3,79,0.00,,---,0.00,VWS V14.01,2013-01-21 00:46:00,
2013-01-20 19:51:00,16.3,10.9,30.15,West,260,1.3,1.3,79,0.00,,---,0.00,VWS V14.01,2013-01-21 00:51:00,
2013-01-20 19:56:00,16.3,10.9,30.15,West,260,1.3,1.3,79,0.00,,---,0.00,VWS V14.01,2013-01-21 00:56:00,
2013-01-20 20:01:00,16.3,10.6,30.15,WSW,238,3.6,3.6,78,0.00,,---,0.00,VWS V14.01,2013-01-21 01:01:00,
2013-01-20 20:06:00,16.3,10.6,30.15,WSW,238,3.6,3.6,78,0.00,,---,0.00,VWS V14.01,2013-01-21 01:06:00,
2013-01-20 20:12:00,16.3,10.6,30.15,WSW,238,3.6,3.6,78,0.00,,---,0.00,VWS V14.01,2013-01-21 01:12:00,
2013-01-20 20:17:00,16.3,10.6,30.15,West,260,4.3,4.3,78,0.00,,---,0.00,VWS V14.01,2013-01-21 01:17:00,
2013-01-20 20:22:00,16.3,10.6,30.15,West,260,6.0,6.0,78,0.00,,---,0.00,VWS V14.01,2013-01-21 01:22:00,
2013-01-20 20:27:00,16.3,10.6,30.15,West,260,3.0,3.0,78,0.00,,---,0.00,VWS V14.01,2013-01-21 01:27:00,
2013-01-20 20:32:00,16.3,10.6,30.15,West,260,3.0,3.0,78,0.00,,---,0.00,VWS V14.01,2013-01-21 01:32:00,
2013-01-20 20:38:00,16.3,10.6,30.15,West,260,4.6,4.6,78,0.00,,---,0.00,VWS V14.01,2013-01-21 01:38:00,
2013-01-20 20:43:00,16.3,10.6,30.15,West,260,4.6,4.6,78,0.00,,---,0.00,VWS V14.01,2013-01-21 01:43:00,
2013-01-20 20:48:00,16.3,10.6,30.15,West,260,4.6,4.6,78,0.00,,---,0.00,VWS V14.01,2013-01-21 01:48:00,
2013-01-20 20:53:00,16.3,10.6,30.15,West,260,4.6,4.6,78,0.00,,---,0.00,VWS V14.01,2013-01-21 01:53:00,
2013-01-20 20:59:00,16.3,10.6,30.15,West,260,5.3,5.3,78,0.00,,---,0.00,VWS V14.01,2013-01-21 01:59:00,
2013-01-20 21:04:00,16.3,10.6,30.15,West,260,5.3,5.3,78,0.00,,---,0.00,VWS V14.01,2013-01-21 02:04:00,
2013-01-20 21:09:00,16.3,10.6,30.15,West,260,5.3,5.3,78,0.00,,---,0.00,VWS V14.01,2013-01-21 02:09:00,
2013-01-20 21:14:00,16.3,10.6,30.15,WSW,238,4.3,4.3,78,0.00,,---,0.00,VWS V14.01,2013-01-21 02:14:00,
2013-01-20 21:19:00,16.3,10.6,30.15,West,260,5.6,5.6,78,0.00,,---,0.00,VWS V14.01,2013-01-21 02:19:00,
2013-01-20 21:25:00,16.3,10.4,30.15,West,260,5.6,5.6,77,0.00,,---,0.00,VWS V14.01,2013-01-21 02:25:00,
2013-01-20 21:30:00,16.3,10.4,30.15,West,260,6.3,6.3,77,0.00,,---,0.00,VWS V14.01,2013-01-21 02:30:00,
2013-01-20 21:35:00,16.3,10.4,30.15,West,260,8.3,8.3,77,0.00,,---,0.00,VWS V14.01,2013-01-21 02:35:00,
2013-01-20 21:40:00,16.3,10.4,30.15,West,260,8.3,8.3,77,0.00,,---,0.00,VWS V14.01,2013-01-21 02:40:00,
2013-01-20 21:45:00,16.3,10.4,30.15,West,260,3.6,4.6,77,0.00,,---,0.00,VWS V14.01,2013-01-21 02:45:00,
2013-01-20 21:51:00,16.3,10.4,30.12,West,260,7.9,7.9,77,0.00,,---,0.00,VWS V14.01,2013-01-21 02:51:00,
2013-01-20 21:56:00,16.3,10.4,30.12,West,260,2.0,2.0,77,0.00,,---,0.00,VWS V14.01,2013-01-21 02:56:00,
2013-01-20 22:01:00,16.3,10.4,30.12,West,260,5.6,5.6,77,0.00,,---,0.00,VWS V14.01,2013-01-21 03:01:00,
2013-01-20 22:06:00,16.3,10.4,30.12,West,260,2.0,2.0,77,0.00,,---,0.00,VWS V14.01,2013-01-21 03:06:00,
2013-01-20 22:11:00,16.3,10.4,30.12,West,260,6.0,6.0,77,0.00,,---,0.00,VWS V14.01,2013-01-21 03:11:00,
2013-01-20 22:16:00,16.3,10.4,30.12,West,260,2.0,3.6,77,0.00,,---,0.00,VWS V14.01,2013-01-21 03:16:00,
2013-01-20 22:22:00,16.3,10.4,30.12,WSW,238,0.0,0.0,77,0.00,,---,0.00,VWS V14.01,2013-01-21 03:22:00,
2013-01-20 22:27:00,16.3,10.4,30.12,SW,215,3.0,3.6,77,0.00,,---,0.00,VWS V14.01,2013-01-21 03:27:00,
2013-01-20 22:32:00,16.1,10.2,30.12,SW,215,3.0,3.0,77,0.00,,---,0.00,VWS V14.01,2013-01-21 03:32:00,
2013-01-20 22:37:00,16.1,10.2,30.12,SW,215,4.0,4.0,77,0.00,,---,0.00,VWS V14.01,2013-01-21 03:37:00,
2013-01-20 22:42:00,16.3,10.4,30.12,South,170,0.0,3.0,77,0.00,,---,0.00,VWS V14.01,2013-01-21 03:42:00,
2013-01-20 22:47:00,16.3,10.4,30.12,South,170,0.0,0.0,77,0.00,,---,0.00,VWS V14.01,2013-01-21 03:47:00,
2013-01-20 22:52:00,16.3,10.4,30.12,NW,305,0.0,0.0,77,0.00,,---,0.00,VWS V14.01,2013-01-21 03:52:00,
2013-01-20 22:58:00,16.3,10.4,30.12,West,260,1.7,2.0,77,0.00,,---,0.00,VWS V14.01,2013-01-21 03:58:00,
2013-01-20 23:03:00,16.3,10.4,30.09,WSW,238,5.6,5.6,77,0.00,,---,0.00,VWS V14.01,2013-01-21 04:03:00,
2013-01-20 23:08:00,16.3,10.4,30.09,West,260,5.6,5.6,77,0.00,,---,0.00,VWS V14.01,2013-01-21 04:08:00,
2013-01-20 23:13:00,16.5,10.5,30.09,WSW,238,3.0,5.6,77,0.00,,---,0.00,VWS V14.01,2013-01-21 04:13:00,
2013-01-20 23:18:00,16.5,10.5,30.12,West,260,4.6,6.0,77,0.00,,---,0.00,VWS V14.01,2013-01-21 04:18:00,
2013-01-20 23:23:00,16.5,10.5,30.12,WSW,238,1.7,4.6,77,0.00,,---,0.00,VWS V14.01,2013-01-21 04:23:00,
2013-01-20 23:28:00,16.5,10.5,30.12,SW,215,4.0,4.0,77,0.00,,---,0.00,VWS V14.01,2013-01-21 04:28:00,
2013-01-20 23:34:00,16.5,10.5,30.09,West,260,4.3,4.3,77,0.00,,---,0.00,VWS V14.01,2013-01-21 04:34:00,
2013-01-20 23:39:00,16.5,10.5,30.09,WNW,282,6.0,6.0,77,0.00,,---,0.00,VWS V14.01,2013-01-21 04:39:00,
2013-01-20 23:44:00,16.5,10.5,30.09,SW,215,3.3,3.3,77,0.00,,---,0.00,VWS V14.01,2013-01-21 04:44:00,
2013-01-20 23:49:00,16.5,10.5,30.09,SW,215,4.0,4.0,77,0.00,,---,0.00,VWS V14.01,2013-01-21 04:49:00,
2013-01-20 23:54:00,16.5,10.8,30.09,WSW,238,4.0,4.0,78,0.00,,---,0.00,VWS V14.01,2013-01-21 04:54:00,
2013-01-20 23:59:00,16.5,10.5,30.09,SW,215,1.7,4.0,77,0.00,,---,0.00,VWS V14.01,2013-01-21 04:59:00,